Location: Ermatingen
(47.6706°N, 9.0857°E)
Time: 07:56:58
(UTC+00:00)

Cosmos 1975 - Pass Details

Date: 18 September 2020
Orbit: 540 x 562 km, 82.5° (Epoch: 24 October)

Event Time Altitude Azimuth Distance (km) Brightness Sun altitude
Rises 18:44:20 0° 206° (SSW) 2,743 6.5 -13.3°
Reaches altitude 10° 18:46:36 10° 213° (SSW) 1,852 5.7 -13.7°
Maximum altitude 18:50:28 41° 285° (WNW) 825 4.3 -14.3°
Drops below altitude 10° 18:54:22 10° 356° (N) 1,862 5.8 -14.9°
Sets 18:56:39 0° 4° (N) 2,760 6.6 -15.3°
